Powrót do katalogu

IRIDIUM 33 DEB

AktywnyPO
NORAD 34690·DEBRIS·🇺🇸 United States

Wystrzelony Sep 14, 1997 z Baikonur Cosmodrome

Loading…

Następne Przeloty (najbliższe 24 godziny)

TLE

ŚwieżeSource: Space-Track

Epoka: Sep 14, 2026, 12:12 UTC

1 34690U 97051KM  26257.50833698  .00002332  00000-0  52064-3 0  9998
2 34690  86.3716 277.0196 0010334 149.0294   3.9225 14.56407148921066

Śledź IRIDIUM 33 DEB w czasie rzeczywistym z AllMySat

Download on the App Store